STARLINK-11486, 62467

Orbit data source: Space-Track

STARLINK-11486, 62467 is a payload satellite owned by SpaceX/Seattle (US) in LEO that was launched on Tue, 31 Dec 2024 UTC via an FALCON 9 launch vehicle from the Air Force Eastern Test Range (AFETR). Payloads include a variety of satellites, spacecraft, and rockets equipped with specific instruments for various scientific and technological missions. These include communications satellites like Starlink; space stations such as the ISS; scientific satellites like the Hubble; Earth observation satellites from companies like Planet Labs, Umbra, and HawkEye 360; GPS; miniature CubeSats for education and research; and military/defense satellites.

Loading next visibility...
STARLINK-11486 details
Identifier
62467, 2024-254F
Orbit
LEO
Last TLE update21 hours ago
Origin
Flag of USSpaceX/Seattle (US)
ManufacturerSpaceX/Seattle
MissionOperational spacecraft
Bus & MotorSTARLINK V2M, Unknown motor
Mass730 kg wet, ~700 kg dry
Launch date (UTC)
2024-12-31 (4 weeks ago)
Launch vehicle
FALCON 9
Launch site
Air Force Eastern Test Range (AFETR)
Object type
Payload
Rocket body
Debris
Shape & HBRUnknown
Radar Cross SectionLarge (>1 m²)

Expand to show TLE details & history

TLE from 21 hours ago
0 STARLINK-11486
1 62467U 24254F   25024.91667824 -.00015320  00000-0 -85250-4 0  9995
2 62467  42.9985 168.9974 0001626 274.1163 271.1276 15.77875912  5123
Epoch: 2025-01-24T22:00Z
Definitive object data (Epoch: 2025-01-24T22:00:00.999Z)
Latitude-3.64188°
Longitude-101.58786°
Altitude336.753 km
Speed7.708 km/s
True Right ascension23h 31m 33s
True Declination-3° 37' 08"
Sunlit
Object was in daylight at TLE epoch
Visualization TLE readout
Latitude41.40097°
Longitude179.12409°
Altitude340.358 km
Speed7.71 km/s
Apparent Right ascension13h 27m 58s
Apparent Declination7° 36' 00"
Sunlit
Object is in daylight
Visualization observer readout
Local Sidereal Time20:16:37
Azimuth283.657° WNW
Elevation-4.318°
Doppler factor1
Orbital elements
Apogee altitude339.54 km
Perigee altitude337.355 km
Semi-major axis6,716.585 km
Eccentricity0.0001626
Inclination42.9985°
RAAN168.9974°
Arg. of periapsis274.1163°
True anomaly271.10897°
Mean anomaly271.1276°
Eccentric anomaly271.11829°
Mean motion3.94294 °/min
BSTAR-0.00008525
Orbital period91.3 mins
Loading maneuver chart data...
Loading historical data...
Loading historical data...
Loading historical data...
Loading historical data...
Loading historical data...
Loading historical data...
Loading historical data...

STARLINK-11486 Visibility forecast

Observer location: undefined°, undefined

Span
Click to sort rows by Start time (UTC) header in descending order
Start Az.
Max El. time (UTC)
Max El. Az.
Max El.
End time (UTC)
End Az.
4 mins2025-01-26 14:33:46.062Z289.652° WNW2025-01-26 14:35:46.062Z27.624° NE32.445°2025-01-26 14:37:46.062Z67.676° E
4 mins2025-01-26 16:09:46.062Z302.09° NW2025-01-26 16:10:46.062Z334.903° NNW36.613°2025-01-26 16:13:46.062Z89.86° E
|